When you browse on this site, cookies collect data to enhance your experience and personalize the content and advertising you see.
Visit our Privacy Policy to learn more. By continuing to use the site, you agree to this use of cookies and data.
  • Em Portugal
  • Lista de países
  • Para 7 dias
  • Temperatura da água
  • Mapas de satélite
  • Mapa do tempo
  • Widgets de tempo
  • user-avatar
    Iniciar Sessão

    Previsão horária em Biatris

    Hoje, 27 Março, Quarta-feira

    Tempo Temperatura Precipitação Vento Pressão Humidade
    00:00 +20°C° 0 mm 3 m/s 655 mmHg 81%
    01:00 +19°C° 0 mm 3 m/s 655 mmHg 85%
    02:00 +19°C° 0 mm 2 m/s 655 mmHg 88%
    03:00 +18°C° 0 mm 2 m/s 655 mmHg 91%
    04:00 +18°C° 0 mm 2 m/s 655 mmHg 93%
    05:00 +17°C° 0 mm 2 m/s 655 mmHg 96%
    06:00 +19°C° 0 mm 3 m/s 656 mmHg 88%
    07:00 +20°C° 0 mm 3 m/s 656 mmHg 81%
    08:00 +22°C° 0 mm 4 m/s 657 mmHg 74%
    09:00 +25°C° 0 mm 4 m/s 658 mmHg 64%
    10:00 +27°C° 0 mm 4 m/s 658 mmHg 54%
    11:00 +30°C° 0 mm 4 m/s 659 mmHg 44%
    12:00 +30°C° 0 mm 4 m/s 658 mmHg 42%
    13:00 +32°C° 0 mm 4 m/s 658 mmHg 39%
    14:00 +32°C° 0 mm 4 m/s 657 mmHg 37%
    15:00 +32°C° 0 mm 4 m/s 657 mmHg 40%
    16:00 +30°C° 0 mm 4 m/s 656 mmHg 44%
    17:00 +29°C° 0 mm 4 m/s 656 mmHg 47%
    18:00 +27°C° 0 mm 4 m/s 656 mmHg 57%
    19:00 +23°C° 0 mm 4 m/s 656 mmHg 67%
    20:00 +21°C° 0 mm 4 m/s 656 mmHg 77%
    21:00 +20°C° 0 mm 4 m/s 656 mmHg 81%
    22:00 +20°C° 0 mm 3 m/s 656 mmHg 86%
    23:00 +19°C° 0 mm 3 m/s 657 mmHg 90%

    Amanhã, 28 Março, Quinta-feira

    Tempo Temperatura Precipitação Vento Pressão Humidade
    00:00 +18°C° 0 mm 3 m/s 656 mmHg 92%
    01:00 +18°C° 0 mm 3 m/s 656 mmHg 94%
    02:00 +18°C° 0 mm 2 m/s 656 mmHg 96%
    03:00 +17°C° 0 mm 2 m/s 656 mmHg 96%
    04:00 +17°C° 0 mm 2 m/s 656 mmHg 96%
    05:00 +17°C° 0 mm 2 m/s 655 mmHg 97%
    06:00 +18°C° 0 mm 2 m/s 656 mmHg 89%
    07:00 +19°C° 0 mm 2 m/s 656 mmHg 81%
    08:00 +21°C° 0 mm 2 m/s 657 mmHg 73%
    09:00 +25°C° 0 mm 2 m/s 657 mmHg 59%
    10:00 +28°C° 0 mm 2 m/s 658 mmHg 46%
    11:00 +31°C° 0 mm 2 m/s 658 mmHg 32%
    12:00 +31°C° 0 mm 2 m/s 658 mmHg 29%
    13:00 +33°C° 0 mm 3 m/s 657 mmHg 26%
    14:00 +34°C° 0 mm 3 m/s 656 mmHg 23%
    15:00 +33°C° 0 mm 3 m/s 656 mmHg 26%
    16:00 +32°C° 0 mm 4 m/s 655 mmHg 30%
    17:00 +30°C° 0 mm 4 m/s 655 mmHg 33%
    18:00 +27°C° 0 mm 4 m/s 654 mmHg 43%
    19:00 +25°C° 0 mm 3 m/s 654 mmHg 52%
    20:00 +22°C° 0 mm 3 m/s 654 mmHg 61%
    21:00 +21°C° 0 mm 2 m/s 654 mmHg 66%
    22:00 +20°C° 0 mm 2 m/s 655 mmHg 71%
    23:00 +19°C° 0 mm 2 m/s 655 mmHg 77%

    Depois de amanhã, 29 Março, Sexta-feira

    Tempo Temperatura Precipitação Vento Pressão Humidade
    00:00 +19°C° 0 mm 1 m/s 654 mmHg 80%
    01:00 +18°C° 0 mm 1 m/s 654 mmHg 84%
    02:00 +18°C° 0 mm 1 m/s 653 mmHg 87%
    03:00 +18°C° 0 mm 1 m/s 653 mmHg 89%
    04:00 +15°C° 0 mm 0 m/s 653 mmHg 90%
    05:00 +15°C° 0 mm 0 m/s 653 mmHg 92%
    06:00 +17°C° 0 mm 0 m/s 654 mmHg 82%
    07:00 +19°C° 0 mm 0 m/s 655 mmHg 73%
    08:00 +22°C° 0 mm 0 m/s 655 mmHg 64%
    09:00 +26°C° 0 mm 1 m/s 656 mmHg 52%
    10:00 +28°C° 0 mm 2 m/s 656 mmHg 40%
    11:00 +31°C° 0 mm 3 m/s 657 mmHg 28%
    12:00 +33°C° 0 mm 4 m/s 656 mmHg 26%
    13:00 +33°C° 0 mm 4 m/s 656 mmHg 23%
    14:00 +34°C° 0 mm 5 m/s 655 mmHg 20%
    15:00 +33°C° 0 mm 5 m/s 654 mmHg 24%
    16:00 +32°C° 0 mm 5 m/s 654 mmHg 28%
    17:00 +29°C° 0 mm 5 m/s 653 mmHg 32%
    18:00 +27°C° 0 mm 4 m/s 653 mmHg 41%
    19:00 +24°C° 0 mm 3 m/s 653 mmHg 51%
    20:00 +21°C° 0 mm 3 m/s 654 mmHg 61%
    21:00 +20°C° 0 mm 3 m/s 654 mmHg 63%
    22:00 +19°C° 0 mm 2 m/s 654 mmHg 66%
    23:00 +18°C° 0 mm 2 m/s 654 mmHg 69%

    30 Março, Sábado

    Tempo Temperatura Precipitação Vento Pressão Humidade
    00:00 +18°C° 0 mm 2 m/s 653 mmHg 72%
    01:00 +17°C° 0 mm 2 m/s 653 mmHg 75%
    02:00 +16°C° 0 mm 2 m/s 653 mmHg 78%
    03:00 +16°C° 0 mm 2 m/s 653 mmHg 79%
    04:00 +15°C° 0 mm 2 m/s 653 mmHg 80%
    05:00 +15°C° 0 mm 2 m/s 653 mmHg 81%
    06:00 +17°C° 0 mm 2 m/s 654 mmHg 70%
    07:00 +19°C° 0 mm 2 m/s 655 mmHg 58%
    08:00 +21°C° 0 mm 3 m/s 656 mmHg 47%
    09:00 +25°C° 0 mm 3 m/s 656 mmHg 38%
    10:00 +28°C° 0 mm 4 m/s 657 mmHg 29%
    11:00 +32°C° 0 mm 4 m/s 657 mmHg 20%
    12:00 +32°C° 0 mm 4 m/s 656 mmHg 20%
    13:00 +33°C° 0 mm 4 m/s 655 mmHg 20%
    14:00 +34°C° 0 mm 5 m/s 655 mmHg 20%
    15:00 +32°C° 0 mm 5 m/s 654 mmHg 24%
    16:00 +30°C° 0 mm 5 m/s 654 mmHg 27%
    17:00 +29°C° 0 mm 5 m/s 654 mmHg 31%
    18:00 +27°C° 0 mm 4 m/s 654 mmHg 40%
    19:00 +23°C° 0 mm 4 m/s 654 mmHg 48%
    20:00 +21°C° 0 mm 3 m/s 654 mmHg 57%
    21:00 +20°C° 0 mm 3 m/s 654 mmHg 60%
    22:00 +19°C° 0 mm 3 m/s 654 mmHg 64%
    23:00 +18°C° 0 mm 2 m/s 654 mmHg 68%

    31 Março, Domingo

    Tempo Temperatura Precipitação Vento Pressão Humidade
    00:00 +17°C° 0 mm 2 m/s 654 mmHg 72%
    01:00 +17°C° 0 mm 2 m/s 653 mmHg 76%
    02:00 +16°C° 0 mm 2 m/s 653 mmHg 80%
    03:00 +16°C° 0 mm 2 m/s 653 mmHg 80%
    04:00 +15°C° 0 mm 2 m/s 653 mmHg 79%
    05:00 +15°C° 0 mm 2 m/s 653 mmHg 78%
    06:00 +17°C° 0 mm 2 m/s 654 mmHg 67%
    07:00 +19°C° 0 mm 2 m/s 655 mmHg 56%
    08:00 +21°C° 0 mm 2 m/s 656 mmHg 46%
    09:00 +25°C° 0 mm 2 m/s 656 mmHg 38%
    10:00 +28°C° 0 mm 2 m/s 656 mmHg 30%
    11:00 +30°C° 0 mm 2 m/s 657 mmHg 22%
    12:00 +31°C° 0 mm 2 m/s 656 mmHg 21%
    13:00 +32°C° 0 mm 2 m/s 656 mmHg 19%
    14:00 +34°C° 0 mm 2 m/s 655 mmHg 18%
    15:00 +33°C° 0 mm 3 m/s 655 mmHg 20%
    16:00 +31°C° 0 mm 3 m/s 654 mmHg 23%
    17:00 +30°C° 0 mm 4 m/s 654 mmHg 26%
    18:00 +27°C° 0 mm 3 m/s 654 mmHg 34%
    19:00 +25°C° 0 mm 3 m/s 654 mmHg 42%
    20:00 +21°C° 0 mm 3 m/s 654 mmHg 50%
    21:00 +20°C° 0 mm 3 m/s 654 mmHg 55%
    22:00 +19°C° 0 mm 2 m/s 654 mmHg 60%
    23:00 +18°C° 0 mm 2 m/s 654 mmHg 65%

    1 Abril, Segunda-feira

    Tempo Temperatura Precipitação Vento Pressão Humidade
    00:00 +17°C° 0 mm 2 m/s 653 mmHg 71%
    01:00 +18°C° 0 mm 1 m/s 653 mmHg 77%
    02:00 +16°C° 0 mm 1 m/s 653 mmHg 83%
    03:00 +16°C° 0 mm 1 m/s 653 mmHg 86%
    04:00 +15°C° 0 mm 1 m/s 653 mmHg 89%
    05:00 +15°C° 0 mm 1 m/s 653 mmHg 92%
    06:00 +18°C° 0 mm 1 m/s 654 mmHg 83%
    07:00 +20°C° 0 mm 1 m/s 654 mmHg 73%
    08:00 +20°C° 0 mm 0 m/s 655 mmHg 64%
    09:00 +25°C° 0 mm 1 m/s 656 mmHg 52%
    10:00 +28°C° 0 mm 1 m/s 656 mmHg 40%
    11:00 +30°C° 0 mm 1 m/s 656 mmHg 28%
    12:00 +31°C° 0 mm 2 m/s 655 mmHg 25%
    13:00 +34°C° 0 mm 2 m/s 655 mmHg 21%
    14:00 +35°C° 0 mm 2 m/s 654 mmHg 18%
    15:00 +34°C° 0 mm 2 m/s 654 mmHg 19%
    16:00 +32°C° 0 mm 2 m/s 654 mmHg 20%
    17:00 +31°C° 0 mm 2 m/s 653 mmHg 22%
    18:00 +28°C° 0 mm 2 m/s 653 mmHg 29%
    19:00 +25°C° 0 mm 2 m/s 653 mmHg 36%
    20:00 +21°C° 0 mm 3 m/s 653 mmHg 42%
    21:00 +20°C° 0 mm 2 m/s 653 mmHg 45%
    22:00 +19°C° 0 mm 2 m/s 653 mmHg 48%
    23:00 +18°C° 0 mm 2 m/s 653 mmHg 51%
    Mostrar mais